Location: ?ejeti?ky
(50.4060°N, 14.9016°E)
Time: 21:30:38
(UTC+00:00)

SL-4 R/B - Pass Details

Date: 07 June 2020
Orbit: 428 x 666 km, 51.6° (Epoch: 04 July)

Event Time Altitude Azimuth Distance (km) Brightness Sun altitude
Rises 01:08:30 0° 289° (WNW) 3,008 5.7 -11.4°
Reaches altitude 10° 01:11:01 10° 281° (W) 2,088 4.8 -11.2°
Maximum altitude 01:15:26 37° 215° (SW) 1,021 2.9 -10.9°
Drops below altitude 10° 01:19:43 10° 149° (SSE) 2,013 4.6 -10.5°
Sets 01:22:06 0° 141° (SE) 2,886 5.5 -10.3°
